sat.trackr.live / text

‹ back to catalog

STARLINK-4483

NORAD 53532 · 2022-101F

PAYLOAD ACTIVE UNKNOWN

§ Identity

Operator
Country
US
Launch date
2022-08-19
Launch site
AFETR
Launch vehicle
Mass (kg)
RCS (m²)

Purposes: comms

External: N2YO · Heavens-Above · Gunter

§ Orbital elements

Epoch: 2026-09-19T18:03:40.998240Z

Period
95.44 min
Inclination
53.1603°
Eccentricity
0.0001166
Mean motion
15.08830216 rev/d
Perigee alt
539.0 km
Apogee alt
540.6 km
Semi-major
6,917.9 km
B*
7.8940e-7
RAAN
282.2849°
Arg perigee
79.8725°
Mean anomaly
280.2397°
Rev number
22,546

§ Raw data

STARLINK-44831 53532U 22101F   26262.75255785 -.00000275  00000+0  78940-6 0  99942 53532  53.1603 282.2849 0001166  79.8725 280.2397 15.08830216225469

JSON: /api/v1/satellites/53532 · /tle

For live sub-satellite position, see the globe view (requires WebGL).

§ Visibility from observer

Set your observer location to see the next 7 days of passes ≥ 10°. The values pass through the URL so the page stays shareable.

No JS? Fill the form by hand. The geolocation button needs JavaScript.